2021-122E (49965 NORAD) Tracking and Keplerian Element Data
This shows tracking and keplerian element data for the satellite.
Feedback or suggestion? Click here.
Element | Value |
Catalog | 49965 |
Name | 2021-122E |
Epoch Orbit | 13 |
Epoch Day | 345.2832405 |
Epoch Year | 2021 |
RAAN | 357.7348 |
Inclination | 97.4472 |
Eccentricity | 0.0010769 |
Argument of Perigee | 274.6609 |
Mean Anonmoly | 86.242 |
Mean Motion | 15.5311657 |
Decay Rate | 0.11281455 |
L1 | 1 49965U 21122E 21345.28324050 .11281455 00000+0 14746+0 0 9997 |
L2 | 2 49965 97.4472 357.7348 0010769 274.6609 86.2420 15.53116570 132 |
Live tracking and technical data element details for 2021-122E (NORAD 49965). 2021-122E can be tracked NOW for your location showing map with azimuth and elevation plus other details from your city location.
Track the satellite on the map from your city or location and see movement details for azimuth, elevation, latitude, longitude, range, height, and movement on the map or in text.
IsCatalogInMostPopularTable: catalog: 49965, numindb: 16
Update: records affected: 1
GetName: 49965 2021-122E
Hit Count: updated at: Mon, 23 May 2022 21:19:48 GMT